GW4722 Weather Reports


time (UTC)temp
F
wind
direction
speed
knots
gust
knots
rain 1hr
in
rain 24hr
in
rain mn
in
humidity
%
barometer
mb
20260509185455 68 108 1.7 2.6 0.00 0.01 0.01 58 1010.4
20260509184952 67 102 2.6 3.5 0.00 0.01 0.01 60 1010.3
20260509184451 67 129 3.5 7.0 0.00 0.01 0.01 60 1010.5
20260509183947 66 132 3.5 5.2 0.00 0.01 0.01 61 1010.6
20260509183446 67 131 1.7 5.2 0.00 0.01 0.01 60 1010.6
20260509182943 67 132 0.0 0.9 0.00 0.01 0.01 61 1010.4
20260509182439 66 117 0.0 0.9 0.00 0.01 0.01 57 1010.6
20260509181937 66 90 0.0 0.9 0.00 0.01 0.01 59 1010.4
20260509181435 66 89 0.9 0.9 0.00 0.01 0.01 61 1010.8
20260509180932 66 97 2.6 3.5 0.00 0.01 0.01 62 1010.9
20260509180427 64 89 2.6 3.5 0.00 0.01 0.01 65 1010.8
20260509175924 65 120 3.5 6.1 0.00 0.01 0.01 63 1010.9
20260509175421 66 75 0.9 2.6 0.00 0.01 0.01 65 1011.0
20260509174917 65 113 2.6 8.7 0.00 0.01 0.01 66 1011.1
20260509174413 65 337 0.0 1.7 0.00 0.01 0.01 68 1011.2
20260509173910 65 128 1.7 3.5 0.00 0.01 0.01 67 1011.3
20260509173409 64 169 0.9 1.7 0.00 0.01 0.01 68 1011.5
20260509172906 63 61 0.0 0.0 0.00 0.01 0.01 72 1011.4
20260509172403 63 65 0.0 0.0 0.00 0.01 0.01 71 1011.8
20260509171858 63 97 0.0 0.9 0.00 0.01 0.01 73 1011.8
20260509171354 63 106 0.0 2.6 0.00 0.01 0.01 73 1011.9
20260509170851 63 47 0.0 1.7 0.00 0.01 0.01 73 1012.0
20260509170348 62 89 1.7 1.7 0.00 0.01 0.01 75 1011.9
20260509165847 62 83 0.0 2.6 0.00 0.01 0.01 76 1012.2
20260509165342 61 98 1.7 3.5 0.00 0.01 0.01 77 1012.2
20260509164838 61 98 1.7 2.6 0.00 0.01 0.01 78 1012.3
20260509164335 61 47 0.0 0.9 0.00 0.01 0.01 78 1012.2
20260509163831 61 34 0.0 0.0 0.00 0.01 0.01 77 1012.2
20260509163328 61 70 0.0 0.0 0.00 0.01 0.01 77 1012.1
20260509162828 60 15 0.0 0.9 0.00 0.01 0.01 77 1012.3
20260509162325 60 10 0.9 1.7 0.00 0.01 0.01 77 1012.1
20260509161822 60 43 0.0 1.7 0.00 0.01 0.01 79 1012.0
20260509161319 59 315 0.9 2.6 0.00 0.01 0.01 79 1012.1
20260509160814 60 27 0.9 0.9 0.00 0.01 0.01 79 1012.2
20260509160310 60 69 0.0 0.0 0.00 0.01 0.01 76 1012.3
20260509155806 60 69 0.0 0.0 0.00 0.01 0.01 78 1012.1
20260509155306 59 308 0.0 0.0 0.00 0.01 0.01 77 1012.3
20260509154758 59 302 0.9 1.7 0.00 0.01 0.01 77 1012.4
20260509154256 60 357 0.9 0.9 0.00 0.01 0.01 78 1012.5
20260509153752 60 100 0.0 1.7 0.00 0.01 0.01 79 1012.2
20260509153248 60 100 0.9 1.7 0.00 0.01 0.01 77 1012.2
20260509152745 59 93 0.0 0.9 0.00 0.01 0.01 80 1012.3
20260509152242 59 38 0.9 1.7 0.00 0.01 0.01 79 1012.3
20260509151739 59 77 0.0 0.9 0.00 0.01 0.01 79 1012.3
20260509151235 59 88 0.0 2.6 0.00 0.01 0.01 81 1012.3
20260509150734 59 81 1.7 3.5 0.00 0.01 0.01 80 1012.0
20260509150232 59 92 0.0 1.7 0.00 0.01 0.01 81 1012.3
20260509145729 58 34 0.0 0.9 0.00 0.01 0.01 84 1012.3
20260509145228 58 49 0.0 0.9 0.00 0.01 0.01 85 1012.2
20260509144725 59 27 0.9 1.7 0.00 0.01 0.01 85 1012.3
20260509144222 58 44 0.9 0.9 0.00 0.01 0.01 86 1012.4
20260509143719 57 37 0.9 0.9 0.00 0.01 0.01 88 1012.5
20260509143217 57 4 0.0 1.7 0.00 0.01 0.01 86 1012.5
20260509142712 57 41 0.0 0.9 0.00 0.01 0.01 86 1012.6
20260509142209 56 55 0.0 0.0 0.00 0.01 0.01 89 1012.6
20260509141704 55 8 0.0 0.0 0.00 0.01 0.01 90 1012.6
20260509141202 55 11 0.0 0.9 0.00 0.01 0.01 90 1012.7
20260509140658 54 99 0.0 0.9 0.00 0.01 0.01 90 1012.6
20260509140156 54 99 1.7 1.7 0.00 0.01 0.01 91 1012.6
20260509135653 54 75 0.0 0.9 0.00 0.01 0.01 92 1012.6
20260509135151 53 18 0.0 0.9 0.00 0.01 0.01 93 1012.6
20260509134647 53 46 0.0 1.7 0.00 0.01 0.01 93 1012.2
20260509134145 53 106 0.9 1.7 0.00 0.01 0.01 93 1012.3
20260509133642 53 61 0.0 0.0 0.00 0.01 0.01 94 1012.0
20260509133139 53 27 0.0 0.0 0.00 0.01 0.01 94 1012.0
20260509132637 53 26 1.7 1.7 0.00 0.01 0.01 94 1012.1
20260509132135 52 99 1.7 2.6 0.00 0.01 0.01 94 1012.4
20260509131631 52 330 0.9 3.5 0.00 0.01 0.01 94 1012.3
20260509131128 53 326 2.6 2.6 0.00 0.01 0.01 94 1012.5
20260509130624 52 219 0.9 1.7 0.00 0.01 0.01 94 1012.5
20260509130121 52 297 0.9 1.7 0.00 0.01 0.01 94 1012.5
20260509125617 53 210 0.9 1.7 0.00 0.01 0.01 95 1012.7
20260509125114 52 296 0.0 0.0 0.00 0.01 0.01 93 1012.6
20260509124610 52 320 0.0 0.0 0.00 0.01 0.01 94 1012.4
20260509124108 52 332 0.0 0.0 0.00 0.01 0.01 94 1012.4
20260509123606 52 25 0.9 0.9 0.00 0.01 0.01 95 1012.5
20260509123102 52 30 0.0 0.0 0.00 0.01 0.01 95 1012.5
20260509122558 52 30 0.0 0.9 0.00 0.01 0.01 94 1012.3
20260509122056 52 92 0.0 1.7 0.00 0.01 0.01 94 1012.3
20260509121552 52 127 1.7 2.6 0.00 0.01 0.01 94 1012.6
20260509121049 51 108 0.0 0.9 0.00 0.01 0.01 93 1012.4
20260509120547 51 118 0.0 0.0 0.05 0.01 0.01 94 1012.4
20260509120046 51 118 0.0 0.9 0.05 0.01 0.01 94 1012.6
20260509115542 51 321 0.9 0.9 0.00 0.00 0.00 94 1012.5
20260509115040 51 330 1.7 1.7 0.00 0.00 0.00 93 1012.4
20260509114538 51 332 0.9 0.9 0.00 0.00 0.00 93 1012.6
20260509114037 51 274 0.0 0.0 0.00 0.00 0.00 93 1012.6
20260509113534 51 17 0.0 0.9 0.00 0.00 0.00 93 1012.5
20260509113032 51 37 0.0 0.9 0.00 0.00 0.00 93 1012.7
20260509112528 51 333 0.0 0.9 0.00 0.00 0.00 92 1012.5
20260509112025 51 163 0.0 0.9 0.00 0.00 0.00 92 1012.5
20260509111522 51 106 0.0 0.9 0.00 0.00 0.00 93 1012.5
20260509111019 51 104 0.9 1.7 0.00 0.00 0.00 91 1012.3
20260509110516 52 93 1.7 1.7 0.00 0.00 0.00 89 1012.3
20260509110013 51 315 0.9 0.9 0.00 0.00 0.00 85 1012.2
20260509105512 51 310 1.7 1.7 0.00 0.00 0.00 86 1012.2
20260509105009 51 331 0.9 2.6 0.00 0.00 0.00 88 1012.2
20260509104506 50 311 0.9 0.9 0.00 0.00 0.00 91 1012.1
20260509104002 50 312 0.9 0.9 0.00 0.00 0.00 91 1012.1
20260509103500 50 291 0.9 1.7 0.00 0.00 0.00 92 1012.1
20260509102958 50 274 0.0 0.9 0.00 0.00 0.00 92 1012.0
20260509102455 50 143 0.0 0.9 0.00 0.00 0.00 91 1012.1
20260509101951 50 35 0.0 0.0 0.00 0.00 0.00 92 1011.8
20260509101448 50 337 0.0 0.0 0.00 0.00 0.00 92 1011.8
20260509100945 50 184 0.0 0.9 0.00 0.00 0.00 91 1011.8
20260509100442 50 39 0.0 0.0 0.00 0.00 0.00 91 1011.5
20260509095939 50 39 0.0 0.0 0.00 0.00 0.00 90 1011.5
20260509095436 50 309 0.0 0.0 0.00 0.00 0.00 88 1011.6
20260509094933 50 309 0.0 0.0 0.00 0.00 0.00 88 1011.8
20260509094429 50 308 0.0 0.0 0.00 0.00 0.00 90 1011.7
20260509093927 49 309 0.0 0.0 0.00 0.00 0.00 91 1011.5
20260509093424 50 308 0.0 0.0 0.00 0.00 0.00 91 1011.6
20260509092923 50 306 0.0 0.0 0.00 0.00 0.00 91 1011.6
20260509092420 50 60 0.0 0.0 0.00 0.00 0.00 91 1011.5
20260509091919 50 60 0.0 0.0 0.00 0.00 0.00 91 1011.6
20260509091415 50 60 0.0 0.0 0.00 0.00 0.00 91 1011.6
20260509090912 50 58 0.0 0.0 0.00 0.00 0.00 90 1011.5
20260509090409 50 58 0.0 0.0 0.00 0.00 0.00 87 1011.4
20260509085907 50 58 0.0 0.0 0.00 0.00 0.00 89 1011.5
20260509085404 50 58 0.0 0.0 0.00 0.00 0.00 89 1011.5
20260509084900 49 58 0.0 0.0 0.00 0.00 0.00 90 1011.6
20260509084357 49 58 0.0 0.0 0.00 0.00 0.00 90 1011.6
20260509083855 49 58 0.0 0.0 0.00 0.00 0.00 91 1011.6
20260509083351 49 60 0.0 0.0 0.00 0.00 0.00 92 1011.5
20260509082848 49 61 0.0 0.0 0.00 0.00 0.00 91 1011.7
20260509082345 49 61 0.0 0.0 0.00 0.00 0.00 91 1011.7
20260509081842 49 59 0.0 0.0 0.00 0.00 0.00 91 1011.6
20260509081339 49 59 0.0 0.0 0.00 0.00 0.00 91 1011.8
20260509080837 49 59 0.0 0.0 0.00 0.00 0.00 91 1011.6
20260509080335 49 59 0.0 0.0 0.00 0.00 0.00 91 1011.7
20260509075833 49 60 0.0 0.0 0.00 0.00 0.00 92 1011.7
20260509075330 49 60 0.0 0.0 0.00 0.00 0.00 92 1011.8
20260509074827 49 60 0.0 0.0 0.00 0.00 0.00 91 1011.8
20260509074324 49 60 0.0 0.0 0.00 0.00 0.00 90 1011.7
20260509073820 49 60 0.0 0.0 0.00 0.00 0.00 90 1011.6
20260509073317 49 60 0.0 0.0 0.00 0.00 0.00 89 1011.9
20260509072814 49 60 0.0 0.0 0.00 0.00 0.00 88 1011.7
20260509072310 49 60 0.0 0.0 0.00 0.00 0.00 88 1011.7
20260509071807 49 61 0.0 0.0 0.00 0.00 0.00 89 1011.9
20260509071304 49 61 0.0 0.0 0.00 0.00 0.00 90 1011.6
20260509070801 49 62 0.0 0.0 0.00 0.00 0.00 90 1011.8
20260509070257 49 62 0.0 0.0 0.00 0.00 0.00 91 1011.8
20260509065754 49 62 0.0 0.0 0.00 0.00 0.00 92 1011.9
20260509065250 49 62 0.0 0.0 0.00 0.00 0.00 91 1012.0
20260509064746 49 63 0.0 0.0 0.00 0.00 0.00 91 1011.8
20260509064244 49 56 0.0 0.0 0.00 0.00 0.00 90 1011.9
20260509063741 49 284 0.0 0.0 0.00 0.00 0.00 88 1012.1
20260509063237 49 284 0.0 0.0 0.00 0.00 0.00 88 1011.9
20260509062735 48 284 0.0 0.0 0.00 0.00 0.00 88 1012.2
20260509062232 48 284 0.0 0.0 0.00 0.00 0.00 90 1012.1
20260509061729 48 284 0.0 0.0 0.00 0.00 0.00 90 1012.4
20260509061227 48 284 0.0 0.0 0.00 0.00 0.00 90 1012.1
20260509060724 48 284 0.0 0.0 0.00 0.00 0.00 90 1012.1
20260509060220 49 284 0.0 0.0 0.00 0.00 0.00 90 1012.2
20260509055716 49 273 0.0 0.0 0.00 0.00 0.00 90 1012.3
20260509055212 49 235 0.0 0.0 0.00 0.00 0.00 90 1012.2
20260509054708 49 235 0.0 0.0 0.00 0.00 0.00 90 1012.3
20260509054206 49 235 0.0 0.0 0.00 0.00 0.00 91 1012.3
20260509053704 50 220 0.0 0.0 0.00 0.00 0.00 90 1012.4
20260509053201 49 218 0.0 0.0 0.00 0.00 0.00 89 1012.5
20260509052659 49 187 0.0 0.0 0.00 0.00 0.00 89 1012.3
20260509052156 50 225 0.0 0.0 0.00 0.00 0.00 90 1012.3
20260509051654 49 330 0.0 0.0 0.00 0.00 0.00 88 1012.3
20260509051151 50 350 0.0 0.0 0.00 0.00 0.00 88 1012.4
20260509050648 49 351 0.0 0.0 0.00 0.00 0.00 88 1012.5
20260509050144 49 351 0.0 0.0 0.00 0.00 0.00 88 1012.3
20260509045642 49 351 0.0 0.0 0.00 0.00 0.00 88 1012.3
20260509045138 49 300 0.0 0.0 0.00 0.00 0.00 89 1012.1
20260509044636 49 253 0.0 0.0 0.00 0.00 0.00 90 1012.3
20260509044133 49 235 0.0 0.0 0.00 0.00 0.00 90 1012.4
20260509043629 49 234 0.0 0.0 0.00 0.00 0.00 88 1012.4
20260509043125 49 234 0.0 0.9 0.00 0.00 0.00 87 1012.3
20260509042622 49 288 0.0 0.0 0.00 0.00 0.00 88 1012.4
20260509042118 49 288 0.0 0.0 0.00 0.00 0.00 89 1012.2
20260509041615 48 241 0.0 0.0 0.00 0.00 0.00 90 1012.2
20260509041112 48 222 0.0 0.0 0.00 0.00 0.00 88 1012.1
20260509040611 49 222 0.9 0.9 0.00 0.00 0.00 88 1012.3
20260509040107 49 351 0.0 0.9 0.00 0.00 0.00 87 1012.3
20260509035604 50 323 0.9 0.9 0.00 0.00 0.00 86 1012.6
20260509035100 49 333 0.0 0.0 0.00 0.00 0.00 88 1012.5
20260509034559 50 333 0.0 0.0 0.00 0.00 0.00 88 1012.6
20260509034055 50 24 0.0 0.0 0.00 0.00 0.00 88 1012.7
20260509033552 50 24 0.0 0.0 0.00 0.00 0.00 87 1012.8
20260509033049 51 24 0.0 0.0 0.00 0.00 0.00 86 1012.8
20260509032547 51 25 0.0 0.9 0.00 0.00 0.00 85 1012.7
20260509032043 52 343 0.0 0.0 0.00 0.00 0.00 84 1012.7
20260509031541 52 345 0.0 0.0 0.00 0.00 0.00 83 1012.8
20260509031038 53 320 0.0 0.9 0.00 0.00 0.00 84 1012.8
20260509030537 53 315 0.0 0.0 0.00 0.00 0.00 80 1012.7
20260509030033 54 310 1.7 1.7 0.00 0.00 0.00 82 1012.7
20260509025529 54 221 0.0 0.0 0.00 0.00 0.00 80 1012.8
20260509025025 55 223 0.0 0.0 0.00 0.00 0.00 79 1013.0
20260509024521 55 223 0.0 0.0 0.00 0.00 0.00 79 1012.8
20260509024017 55 219 0.0 0.0 0.00 0.00 0.00 77 1012.9
20260509023515 56 124 0.0 1.7 0.00 0.00 0.00 75 1012.9
20260509023012 55 190 0.0 0.0 0.00 0.00 0.00 75 1012.9
20260509022508 56 34 0.0 0.0 0.00 0.00 0.00 74 1012.9
20260509022006 56 336 0.9 0.9 0.00 0.00 0.00 71 1012.8
20260509021503 56 313 0.9 1.7 0.00 0.00 0.00 73 1012.9
20260509020959 56 324 0.9 1.7 0.00 0.00 0.00 71 1013.0
20260509020458 56 320 0.9 0.9 0.00 0.00 0.00 72 1013.0
20260509015954 56 333 0.0 0.9 0.00 0.00 0.00 73 1013.0
20260509015453 56 6 0.9 0.9 0.00 0.00 0.00 72 1012.8
20260509014950 56 77 0.0 0.9 0.00 0.00 0.00 70 1013.0
20260509014447 56 359 0.0 0.0 0.00 0.00 0.00 70 1012.8
20260509013943 57 94 0.0 1.7 0.00 0.00 0.00 73 1012.9
20260509013440 56 325 1.7 2.6 0.00 0.00 0.00 70 1012.9
20260509012936 56 120 0.0 0.9 0.00 0.00 0.00 71 1012.9
20260509012432 56 29 0.0 0.9 0.00 0.00 0.00 71 1012.7
20260509011929 56 310 0.9 1.7 0.00 0.00 0.00 70 1012.7
20260509011427 57 305 0.9 1.7 0.00 0.00 0.00 70 1012.8
20260509010925 56 304 0.9 0.9 0.00 0.00 0.00 71 1012.6
20260509010422 56 304 0.9 0.9 0.00 0.00 0.00 70 1012.7
20260509005918 56 315 0.0 0.9 0.00 0.00 0.00 71 1012.7
20260509005417 57 316 0.9 1.7 0.00 0.00 0.00 72 1012.6
20260509004916 57 349 0.0 0.0 0.00 0.00 0.00 72 1012.6
20260509004413 58 53 0.0 0.9 0.00 0.00 0.00 66 1012.6
20260509003911 58 305 0.9 1.7 0.00 0.00 0.00 66 1012.5
20260509003409 58 304 1.7 2.6 0.00 0.00 0.00 67 1012.6
20260509002905 58 336 0.0 0.0 0.00 0.00 0.00 64 1012.4
20260509002403 59 324 0.0 0.0 0.00 0.00 0.00 64 1012.4
20260509001901 60 322 0.0 0.0 0.00 0.00 0.00 63 1012.3
20260509001356 60 311 0.0 0.9 0.00 0.00 0.00 57 1012.1
20260509000854 60 299 1.7 2.6 0.00 0.00 0.00 58 1012.3
20260509000352 61 320 0.9 1.7 0.00 0.00 0.00 60 1012.2
20260508235848 62 314 0.0 0.0 0.00 0.00 0.00 59 1012.2
20260508235345 63 315 0.9 0.9 0.00 0.00 0.00 55 1012.1
20260508234842 64 299 0.9 0.9 0.00 0.00 0.00 53 1012.1
20260508234338 65 284 0.0 0.0 0.00 0.00 0.00 46 1012.0
20260508233837 67 283 0.0 0.0 0.00 0.00 0.00 43 1012.0
20260508233336 67 283 0.0 0.9 0.00 0.00 0.00 39 1012.1
20260508232832 67 301 0.0 0.9 0.00 0.00 0.00 40 1012.1
20260508232329 67 307 0.9 0.9 0.00 0.00 0.00 39 1012.0
20260508231827 68 302 1.7 2.6 0.00 0.00 0.00 38 1011.9
20260508231323 69 312 1.7 3.5 0.00 0.00 0.00 39 1011.9
20260508230820 68 286 0.0 0.9 0.00 0.00 0.00 39 1012.0
20260508230316 69 283 0.9 1.7 0.00 0.00 0.00 38 1012.0
20260508225814 68 276 1.7 3.5 0.00 0.00 0.00 38 1011.9
20260508225310 69 318 2.6 3.5 0.00 0.00 0.00 38 1011.8
20260508224808 69 292 2.6 3.5 0.00 0.00 0.00 36 1011.9
20260508224305 69 291 1.7 2.6 0.00 0.00 0.00 37 1011.9
20260508223803 69 5 2.6 3.5 0.00 0.00 0.00 37 1012.1
20260508223300 68 279 0.0 2.6 0.00 0.00 0.00 38 1012.1
20260508222758 67 297 1.7 2.6 0.00 0.00 0.00 38 1012.1
20260508222255 67 278 1.7 3.5 0.00 0.00 0.00 39 1012.1
20260508221751 67 333 1.7 2.6 0.00 0.00 0.00 38 1012.2
20260508221247 68 288 5.2 6.1 0.00 0.00 0.00 37 1012.1
20260508220743 68 237 1.7 5.2 0.00 0.00 0.00 36 1012.3
20260508220240 68 237 2.6 5.2 0.00 0.00 0.00 40 1012.0
20260508215736 69 234 0.9 3.5 0.00 0.00 0.00 37 1012.1
20260508215233 71 278 0.9 2.6 0.00 0.00 0.00 33 1012.0
20260508214730 71 230 0.9 2.6 0.00 0.00 0.00 35 1012.2
20260508214228 70 208 0.9 2.6 0.00 0.00 0.00 37 1012.1
20260508213724 68 304 0.9 1.7 0.00 0.00 0.00 37 1012.2
20260508213220 68 246 0.0 1.7 0.00 0.00 0.00 35 1012.2
20260508212717 69 236 1.7 6.1 0.00 0.00 0.00 35 1012.2
20260508212213 68 262 0.9 2.6 0.00 0.00 0.00 36 1012.3
20260508211709 68 290 1.7 3.5 0.00 0.00 0.00 36 1012.5
20260508211205 68 280 0.9 3.5 0.00 0.00 0.00 37 1012.4
20260508210703 68 255 0.0 3.5 0.00 0.00 0.00 37 1012.3
20260508210200 67 292 2.6 3.5 0.00 0.00 0.00 36 1012.4
20260508205656 68 299 5.2 7.8 0.00 0.00 0.00 35 1012.4
20260508205153 69 324 1.7 2.6 0.00 0.00 0.00 35 1012.3
20260508204649 69 270 0.9 1.7 0.00 0.00 0.00 34 1012.3
20260508204145 68 310 3.5 7.0 0.00 0.00 0.00 35 1012.4
20260508203642 68 341 5.2 7.0 0.00 0.00 0.00 36 1012.6
20260508203138 68 294 1.7 2.6 0.00 0.00 0.00 35 1012.6
20260508202634 68 314 2.6 5.2 0.00 0.00 0.00 36 1012.7
20260508202131 68 293 2.6 2.6 0.00 0.00 0.00 35 1012.8
20260508201628 67 305 1.7 7.0 0.00 0.00 0.00 35 1012.7
20260508201125 67 273 1.7 3.5 0.00 0.00 0.00 37 1012.8
20260508200622 68 265 1.7 2.6 0.00 0.00 0.00 36 1012.8
20260508200117 68 247 2.6 3.5 0.00 0.00 0.00 35 1012.8
20260508195614 68 294 4.3 7.8 0.00 0.00 0.00 33 1012.9
20260508195111 68 265 0.9 3.5 0.00 0.00 0.00 36 1012.8
20260508194607 68 276 0.9 3.5 0.00 0.00 0.00 37 1012.7
20260508194105 68 281 2.6 6.1 0.00 0.00 0.00 34 1012.9
20260508193601 68 278 6.1 11.3 0.00 0.00 0.00 33 1012.9
20260508193058 69 203 3.5 6.1 0.00 0.00 0.00 34 1013.0
20260508192554 71 260 2.6 11.3 0.00 0.00 0.00 30 1012.9
20260508192052 71 265 0.9 5.2 0.00 0.00 0.00 33 1012.7
20260508191548 70 264 3.5 8.7 0.00 0.00 0.00 31 1013.0
20260508191045 71 292 6.1 7.8 0.00 0.00 0.00 31 1013.3
20260508190542 69 315 4.3 6.1 0.00 0.00 0.00 32 1013.4
20260508190039 69 305 3.5 7.8 0.00 0.00 0.00 33 1013.6